User: anonymous   Login
Location: Unspecified
(51.0950°N, 12.9690°E)
Time: 23:16:06
(UTC+00:00)
Language:

ATLAS 3B R/B - Orbit

View from above orbital plane
View from above orbital plane
View from above satellite
View from above satellite

Ground track
Ground track

The orbit data is extracted from the following two-line orbital elements,

1 28538U 05004B   22027.73097142 0.00000030  00000-0  49435-4 0    06
2 28538  63.8261   7.9496 0139796 352.9382   7.0618 13.43153932    02
Epoch (UTC): 27 January 2022 17:32:35
Eccentricity: 0.0139796
inclination: 63.8261°
perigee height: 993 km
apogee height: 1202 km
right ascension of ascending node: 7.9496°
argument of perigee: 352.9382°
revolutions per day: 13.43153932
mean anomaly at epoch: 7.0618°
orbit number at epoch: 0

The dashed part of the orbit path shows where the satellite is in the earth's shadow,  

DLR